Weather History for Bolton Field, OH

Change the Weather History Date:

Monday, March 4, 2013

  Actual Average Record
Temperature  
Mean Temperature 29 °F -  
Max Temperature 39 °F 43 °F 55 °F (2004)
Min Temperature 19 °F 27 °F 5 °F (2014)
Degree Days  
Heating Degree Days 36    
Moisture  
Dew Point 18 °F    
Average Humidity 68    
Maximum Humidity 87    
Minimum Humidity 39    
Precipitation  
Precipitation 0.00 in - - ()
Sea Level Pressure  
Sea Level Pressure 30.08 in    
Wind  
Wind Speed 1 mph (South)    
Max Wind Speed 7 mph    
Max Gust Speed -    
Visibility 10 miles    
Events Rain    
Averages and records for this station are not official NWS values.
T = Trace of Precipitation, MM = Missing Value Source: NWS Daily Summary

Daily Weather History Graph

Daily Weather History Graph

Search for Another Location

Airport:

Trip Planner

Search our weather history database for the weather conditions in past years. The results will help you decide how hot, cold, wet, or windy it might be!

Date:

Astronomy

Mar. 04, 2013 Rise Set
Actual Time 7:00 AM EST 6:28 PM EST
Civil Twilight 6:33 AM EST 6:55 PM EST
Nautical Twilight 6:02 AM EST 7:26 PM EST
Astronomical Twilight 5:31 AM EST 7:57 PM EST
Moon 1:08 AM EST (3/4) 11:09 AM EST (3/4)
Length of Visible Light 12h 21m
Length of Day
11h 27m
Waning Gibbous, 52% of the Moon is Illuminated
Mar 4
Waning Gibbous
Mar 4
Last Quarter
Mar 11
New
Mar 19
First Quarter
Mar 27
Full

Hourly Weather History & Observations

Time (EST) Temp. Windchill Dew Point Humidity Pressure Visibility Wind Dir Wind Speed Gust Speed Precip Events Conditions
12:15 AM 26.2 °F - 18.5 °F 73% 30.06 in 10.0 mi Calm Calm - N/A   Overcast
12:35 AM 25.9 °F - 18.1 °F 73% 30.06 in 10.0 mi Calm Calm - N/A   Overcast
12:55 AM 26.1 °F - 17.1 °F 69% 30.07 in 10.0 mi North - - N/A   Overcast
1:15 AM 25.5 °F - 17.8 °F 72% 30.08 in 10.0 mi Calm Calm - N/A   Overcast
1:35 AM 25.5 °F - 17.4 °F 71% 30.07 in 10.0 mi North - - N/A   Overcast
1:55 AM 24.4 °F - 17.2 °F 74% 30.08 in 10.0 mi Calm Calm - N/A   Mostly Cloudy
2:35 AM 22.5 °F - 17.4 °F 81% 30.08 in 10.0 mi North - - N/A   Clear
2:55 AM 21.0 °F - 17.2 °F 85% 30.08 in 10.0 mi Calm Calm - N/A   Clear
3:15 AM 21.7 °F - 17.1 °F 82% 30.07 in 10.0 mi Calm Calm - N/A   Clear
3:55 AM 21.0 °F - 16.5 °F 83% 30.08 in 10.0 mi North - - N/A   Clear
4:15 AM 19.0 °F - 15.6 °F 87% 30.09 in 10.0 mi North - - N/A   Clear
4:35 AM 20.3 °F - 15.6 °F 82% 30.10 in 10.0 mi North - - N/A   Clear
4:55 AM 20.7 °F - 15.8 °F 81% 30.11 in 10.0 mi North - - N/A   Clear
5:15 AM 20.5 °F - 15.4 °F 81% 30.11 in 10.0 mi North - - N/A   Clear
5:35 AM 20.3 °F - 15.3 °F 81% 30.11 in 10.0 mi North - - N/A   Clear
5:55 AM 20.3 °F - 15.4 °F 81% 30.11 in 10.0 mi North - - N/A   Clear
6:15 AM 19.8 °F - 15.1 °F 82% 30.12 in 10.0 mi North - - N/A   Clear
6:35 AM 19.4 °F - 15.3 °F 84% 30.13 in 10.0 mi North - - N/A   Clear
6:55 AM 19.0 °F - 15.1 °F 85% 30.13 in 10.0 mi North - - N/A   Clear
7:15 AM 19.0 °F - 15.1 °F 85% 30.14 in 10.0 mi North - - N/A   Clear
7:20 AM 19.4 °F 11.5 °F 15.8 °F 86% 30.14 in 10.0 mi WSW 5.8 mph - N/A   Clear
7:50 AM 21.2 °F 12.6 °F 15.8 °F 80% 30.14 in 10.0 mi WSW 6.9 mph - N/A   Clear
8:50 AM 24.8 °F 16.9 °F 19.4 °F 80% 30.15 in 10.0 mi WSW 6.9 mph - N/A   Clear
9:50 AM 28.4 °F 22.2 °F 17.6 °F 64% 30.16 in 10.0 mi WSW 5.8 mph - N/A   Clear
11:47 AM 33.8 °F - 17.6 °F 52% 30.13 in 10.0 mi Calm Calm - N/A   Clear
12:47 PM 35.6 °F - 15.8 °F 44% 30.11 in 10.0 mi Calm Calm - N/A   Clear
1:55 PM 37.4 °F - 15.8 °F 41% 30.08 in 10.0 mi Calm Calm - N/A   Clear
2:50 PM 39.2 °F - 17.6 °F 42% 30.07 in 10.0 mi Calm Calm - N/A   Clear
4:50 PM 39.2 °F - 15.8 °F 39% 30.05 in 10.0 mi Calm Calm - N/A   Clear
5:50 PM 37.4 °F - 17.6 °F 45% 30.05 in 10.0 mi Calm Calm - N/A   Clear
6:50 PM 35.6 °F - 19.4 °F 52% 30.06 in 10.0 mi Calm Calm - N/A   Clear
8:15 PM 33.1 °F - 21.0 °F 61% 30.05 in 10.0 mi Calm Calm - N/A   Scattered Clouds
8:35 PM 33.8 °F 30.8 °F 19.6 °F 56% 30.04 in 10.0 mi East 3.5 mph - N/A   Scattered Clouds
8:55 PM 33.8 °F - 19.9 °F 57% 30.04 in 10.0 mi Calm Calm - N/A   Scattered Clouds
9:15 PM 34.2 °F - 19.2 °F 54% 30.04 in 10.0 mi Calm Calm - N/A   Clear
9:35 PM 34.5 °F - 19.4 °F 54% 30.04 in 10.0 mi Calm Calm - N/A   Mostly Cloudy
9:55 PM 34.5 °F - 19.6 °F 54% 30.04 in 10.0 mi Calm Calm - N/A   Overcast
10:15 PM 34.3 °F 31.4 °F 20.7 °F 57% 30.04 in 10.0 mi East 3.5 mph - N/A   Overcast
10:35 PM 34.5 °F - 21.0 °F 58% 30.05 in 10.0 mi Calm Calm - N/A   Overcast
10:55 PM 34.3 °F 31.4 °F 21.4 °F 59% 30.05 in 10.0 mi ESE 3.5 mph - N/A   Overcast
11:15 PM 34.5 °F 31.6 °F 21.0 °F 58% 30.05 in 10.0 mi SSE 3.5 mph - N/A   Overcast
11:35 PM 34.0 °F 28.8 °F 21.4 °F 60% 30.06 in 7.0 mi South 5.8 mph - N/A Rain Light Rain
11:55 PM 32.0 °F 27.5 °F 25.5 °F 77% 30.06 in 4.0 mi SSW 4.6 mph - N/A Rain Rain